Regional Weather Roundup
Issued by NWS Cleveland, OH

Home | Current Version | Previous Version | Graphics & Text | Print | Product List | Glossary On
Versions: 1 2 3 4 5 6 7 8 9 10 11 12 13 14 15 16 17 18 19 20 21 22 23 24 25 26 27 28 29 30 31 32 33 34 35 36 37 38 39 40 41 42 43 44 45 46 47 48 49 50
000
ASUS41 KCLE 250100
RWRCLE
OHIO REGIONAL WEATHER ROUNDUP
NATIONAL WEATHER SERVICE WILMINGTON, OH
900 PM EDT FRI APR 24 2015

NOTE: "FAIR" INDICATES FEW OR NO CLOUDS BELOW 12,000 FEET WITH NO
SIGNIFICANT WEATHER AND/OR OBSTRUCTIONS TO VISIBILITY.

OHZ001>008-015>018-024>027-034-035-043-044-250200-
   NORTHWEST OHIO

CITY           SKY/WX    TMP DP  RH WIND       PRES   REMARKS
DEFIANCE       CLOUDY    57  26  30 CALM      29.96R
FINDLAY        CLOUDY    55  28  35 SE3       29.95F
TOLEDO EXPRESS MOCLDY    52  25  35 CALM      29.96S
TOLEDO EXEC    MOCLDY    48  29  47 E8        29.98R
LIMA           CLOUDY    53  31  42 S3        29.95F
$$

OHZ009>014-019>023-028>033-038-089-250200-
   NORTHEAST OHIO

CITY           SKY/WX    TMP DP  RH WIND       PRES   REMARKS
CLE-HOPKINS    PTCLDY    45  22  40 E8        30.02S
CLE-LAKEFRONT  CLEAR     47  22  37 E7        29.99F
CUY CO. ARPT   MOCLDY    45  23  42 E8        30.02S
LORAIN-ELYRIA  PTCLDY    43  29  57 E8        29.99S
ASHTABULA      CLEAR     40  19  43 CALM      30.03F
AKRON-CANTON   MOCLDY    44  22  41 NE7       30.00R
WOOSTER        NOT AVBL
MANSFIELD      PTCLDY    49  23  36 CALM      29.98R
YOUNGSTOWN     MOCLDY    40  20  44 NE7       30.00S
$$

OHZ042-051>053-060>062-070>072-077>081-250200-
  SOUTHWEST OHIO

CITY           SKY/WX    TMP DP  RH WIND       PRES   REMARKS
CINC-COVINGTON CLOUDY    56  34  43 S7        29.95F
CINC-LUNKEN    CLOUDY    56  35  45 SE3       29.96F
HAMILTON       CLOUDY    58  30  34 CALM      29.95F
DAYTON         NOT AVBL
WRIGHT-PAT AFB CLOUDY    55  26  32 SE5       29.96F
DAYTON GENERAL CLOUDY    54  26  34 E5        29.95F
WILMINGTON     CLOUDY    52  34  50 SE5       29.97F
$$

OHZ036-037-039>041-045>050-054>059-063>069-073>076-082>088-250200-
  CENTRAL AND SOUTHEAST OHIO

CITY           SKY/WX    TMP DP  RH WIND       PRES   REMARKS
COLUMBUS       CLOUDY    54  26  34 S3        29.97F
OSU AIRPORT    CLOUDY    54  25  32 CALM      29.97F
BOLTON FIELD   NOT AVBL
RICKENBACK AFB NOT AVBL
NEWARK         MOCLDY    50  28  42 CALM      29.98S
MARION         PTCLDY    51  26  37 CALM      29.98S
LANCASTER      CLOUDY    51  40  65 E3        29.98F
ZANESVILLE     MOCLDY    51  24  34 CALM      29.99R
NEW PHILLY     PTCLDY    49  29  46 CALM      30.00R
$$



USA.gov is the U.S. government's official web portal to all federal, state and local government web resources and services.